User: anonymous   Login
Location: ??
(35.4032°N, 139.3073°E)
Time: 05:15:07
(UTC+00:00)
Language:

Cosmos 2266 Rocket - Orbit

View from above orbital plane
View from above orbital plane
View from above satellite
View from above satellite

Ground track
Ground track

The orbit data is extracted from the following two-line orbital elements,

1 22889U 93070B   24164.67443210  .00000055  00000-0  39711-4 0  9997
2 22889  82.9458 218.3397 0048292 273.6871  85.8765 13.78116076538903
Epoch (UTC): 12 June 2024 16:11:10
Eccentricity: 0.0048292
inclination: 82.9458°
perigee height: 935 km
apogee height: 1006 km
right ascension of ascending node: 218.3397°
argument of perigee: 273.6871°
revolutions per day: 13.78116076
mean anomaly at epoch: 85.8765°
orbit number at epoch: 53890

The dashed part of the orbit path shows where the satellite is in the earth's shadow,  

DLR